Regional Weather Roundup
Issued by NWS

Home | Current Version | Previous Version | Graphics & Text | Print | Product List | Glossary Off
Versions: 1 2 3 4 5 6 7 8 9 10 11 12 13 14 15 16 17 18 19 20 21 22 23 24 25 26 27 28 29 30 31 32 33 34 35 36 37 38 39 40 41 42 43 44 45 46 47 48 49 50

000
ASUS43 KDTX 292210
RWRMI
MICHIGAN HOURLY REGIONAL WEATHER ROUNDUP
NATIONAL WEATHER SERVICE DETROIT/PONTIAC MI
600 PM EDT FRI MAY 29 2015

NOTE: "FAIR" INDICATES FEW OR NO CLOUDS BELOW 12,000 FEET WITH NO
SIGNIFICANT WEATHER AND/OR OBSTRUCTION TO VISIBILITY.

MIZ047>049-052>055-059>063-066>070-074>076-081>083-292300-
SOUTHEAST LOWER MICHIGAN

CITY           SKY/WX    TMP DP  RH WIND       PRES   REMARKS
ADRIAN         MOSUNNY   83  63  50 SW14G20   30.01F
ALMA           PTSUNNY   81  60  49 S7        29.96S
ANN ARBOR      MOSUNNY   82  64  54 SW12      30.00F
BAD AXE        MOSUNNY   78  61  55 S16G22    29.99F
CARO           MOSUNNY   81  66  60 S12       29.97F
DETROIT CITY   MOSUNNY   81  67  62 S12       30.01F
DETROIT        PTSUNNY   83  68  60 SE13      30.01F
FLINT          MOSUNNY   82  65  56 S12G21    29.99F
GROSSE ILE     MOSUNNY   75  68  78 SE8       30.01F
HILLSDALE      MOSUNNY   83  61  47 SW9G17    30.01F
HOWELL         MOSUNNY   82  61  48 SW12G18   30.00S

CITY           SKY/WX    TMP DP  RH WIND       PRES   REMARKS
JACKSON        MOSUNNY   83  63  50 S13       29.99F
LAMBERTVILLE   MOSUNNY   84  63  48 SW6       30.02S
LANSING        PTSUNNY   82  62  50 S12       29.97F
LAPEER         FAIR      79  65  61 S10       30.01F
MASON          MOSUNNY   79  62  56 S12G17    29.98F
MONROE         MOSUNNY   79  68  69 SE9       30.00F
MT. CLEMENS    PTSUNNY   76  69  79 S10       30.01F
PONTIAC        PTSUNNY   80  66  62 S10       30.00F
PORT HOPE        N/A     81  63  54 S15G23    29.96F
PORT HURON     CLOUDY    79  68  69 S14       30.02F
TRI CITIES     PTSUNNY   83  63  50 S15       29.95F
MIDLAND        PTSUNNY   83  63  49 S8        29.94S
TROY           MOSUNNY   80  69  67 S6        30.03F
SAGINAW HB     MOSUNNY   82  63  51 S17       29.96F
$$
MIZ043>046-050>051-056>058-064>065-071>073-077>080-292300-
SOUTHWEST LOWER MICHIGAN

CITY           SKY/WX    TMP DP  RH WIND       PRES   REMARKS
BATTLE CREEK   HVY RAIN  72  66  81 W13       30.01R
BENTON HARBOR  MOSUNNY   80  68  66 S10       29.94F
BIG RAPIDS     LGT RAIN  68  63  83 S8G22     29.97S
COLDWATER      PTSUNNY   82  60  48 S9G17     29.98F
FREMONT        FAIR      76  64  66 S10G16    29.95F
HOLLAND        PTSUNNY   75  69  81 SE7       29.96F
GRAND RAPIDS   CLOUDY    73  69  87 S5        29.98F
IONIA          LGT RAIN  71  69  93 W13       29.98R
KALAMAZOO      PTSUNNY   75  69  81 N5        29.97F
LUDINGTON      PTSUNNY   76  65  69 S10G20    29.92F
MARSHALL       PTSUNNY   81  62  51 S8        29.97F
MOUNT PLEASANT LGT RAIN  77  63  61 SW7       29.96R
MUSKEGON       CLOUDY    76  66  71 S7        29.94F
SOUTH HAVEN    MOSUNNY   77  69  76 SE3       29.94F
$$
MIZ016>042-292300-
NORTHERN LOWER MICHIGAN

CITY           SKY/WX    TMP DP  RH WIND       PRES   REMARKS
ALPENA         CLOUDY    69  64  84 E5        29.96F
BEAVER ISLAND  CLOUDY    71  63  77 S8        29.90F
BELLAIRE       CLOUDY    76  66  72 S3        29.92F
CADILLAC       PTSUNNY   77  63  62 S12       29.95S
CHARLEVOIX     CLOUDY    74  66  76 SE6       29.94F HAZE
FRANKFORT      CLOUDY    74  60  62 SW9       29.91F
GAYLORD        PTSUNNY   72  66  81 S6        29.95F
GRAYLING       PTSUNNY   71  66  82 CALM      29.96F
HARBOR SPRINGS CLOUDY    73  65  75 SW3       29.91F
HOUGHTON LAKE  PTSUNNY   76  62  62 NW3       29.96F
MANISTEE       CLOUDY    75  63  64 S8        29.93F
OSCODA         MOSUNNY   75  61  62 SE14G24   29.95S
PELLSTON       CLOUDY    74  66  76 SE6       29.92F
ROGERS CITY    CLOUDY    71  66  84 S3        29.95F
TRAVERSE CITY  CLOUDY    79  67  66 SW3       29.90F
$$
MIZ007>008-015-292300-
EASTERN UPPER MICHIGAN

CITY           SKY/WX    TMP DP  RH WIND       PRES   REMARKS
KINROSS        CLOUDY    70  63  78 SE15      29.91F
MACKINAC ISLAN PTSUNNY   70  63  77 SE7       29.90F
NEWBERRY       PTSUNNY   67  58  73 S17G25    29.89F
S. S. MARIE    CLOUDY    65  59  81 E6        29.91F
MUNISING         N/A     70  60  70 CALM      29.84R
$$
MIZ004>006-011>014-085-292300-
CENTRAL UPPER MICHIGAN

CITY           SKY/WX    TMP DP  RH WIND       PRES   REMARKS
MANISTIQUE     FOG       50  49  95 S9        29.90F VSB 1/4
ESCANABA       CLOUDY    64  55  72 S9        29.86F
MENOMINEE      CLOUDY    75  64  69 S14       29.85F
SAWYER-GWINN   LGT RAIN  70  63  78 NW16G23   29.86R
$$
MIZ001>003-009>011-084-292300-
WESTERN UPPER MICHIGAN

CITY           SKY/WX    TMP DP  RH WIND       PRES   REMARKS
IRON MOUNTAIN  LGT RAIN  74  62  66 W12       29.85R
HOUGHTON       CLOUDY    55  53  93 NW16      29.88R
COPPER HARBOR    N/A     59  54  83 N14G20    29.85R
IRONWOOD       CLOUDY    61  57  88 NW10      29.90R
$$

ABBREVIATIONS USED IN REMARKS
   TC - TEMPERATURE IN CELSIUS
  WCI - WIND CHILL INDEX
   HX - HEAT INDEX
  VSB - VISIBILITY




USA.gov is the U.S. government's official web portal to all federal, state and local government web resources and services.